This demonstration page uses our WeatherBlox Daily Observations layout. Learn more.

Left ArrowRight Arrow

Hourly Observations for January 29, 2018

Temp ( °F °C ) Dew Point ( °F °C ) Humidity (%) Winds ( mph kmh ) Pressure ( in mb ) Visibility ( mi km ) Precip ( " mm )
12:53 am 00:53 Clear 32 0 15 -9.4 50 50 N 8 13 30.40 1029 10 16 0.00 0.00
1:53 am 01:53 Clear 30 -1.1 14 -10 51 51 N 9 15 30.41 1030 10 16 0.00 0.00
2:53 am 02:53 Clear 28 -2.2 13 -10.6 53 53 N 6 9 30.42 1030 10 16 0.00 0.00
3:53 am 03:53 Clear 29 -1.7 14 -10 54 54 N 7 11 30.43 1030 10 16 0.00 0.00
4:53 am 04:53 Clear 27 -2.8 14 -10 58 58 N 9 15 30.43 1031 10 16 0.00 0.00
5:53 am 05:53 Clear 28 -2.2 14 -10 56 56 NNW 7 11 30.45 1031 10 16 0.00 0.00
6:53 am 06:53 Clear 27 -2.8 13 -10.6 55 55 N 9 15 30.50 1033 10 16 0.00 0.00
7:53 am 07:53 Sunny 27 -2.8 13 -10.6 55 55 N 8 13 30.54 1034 10 16 0.00 0.00
8:53 am 08:53 Sunny 34 1.1 14 -10 44 44 N 6 9 30.56 1035 10 16 0.00 0.00
9:53 am 09:53 Sunny 46 7.8 15 -9.4 29 29 ENE 10 17 30.57 1035 10 16 0.00 0.00
10:53 am 10:53 Sunny 51 10.6 15 -9.4 24 24 E 7 11 30.59 1036 10 16 0.00 0.00
11:53 am 11:53 Sunny 55 12.8 14 -10 20 20 VRB 7 11 30.57 1035 10 16 0.00 0.00
12:53 pm 12:53 Sunny 58 14.4 12 -11.1 16 16 SSE 8 13 30.51 1033 10 16 0.00 0.00
1:53 pm 13:53 Sunny 60 15.6 11 -11.7 14 14 SSE 10 17 30.46 1032 10 16 0.00 0.00
2:53 pm 14:53 Sunny 60 15.6 11 -11.7 14 14 S 10 17 30.44 1031 10 16 0.00 0.00
3:53 pm 15:53 Sunny 61 16.1 12 -11.1 14 14 S 7 11 30.42 1030 10 16 0.00 0.00
4:53 pm 16:53 Sunny 61 16.1 12 -11.1 14 14 SSE 9 15 30.40 1030 10 16 0.00 0.00
5:53 pm 17:53 Sunny 59 15 12 -11.1 15 15 ESE 7 11 30.38 1029 10 16 0.00 0.00
6:53 pm 18:53 Clear 51 10.6 12 -11.1 21 21 SE 7 11 30.41 1030 10 16 0.00 0.00
7:53 pm 19:53 Clear 48 8.9 12 -11.1 23 23 ESE 6 9 30.42 1030 10 16 0.00 0.00
8:53 pm 20:53 Clear 44 6.7 11 -11.7 26 26 ESE 5 7 30.42 1030 10 16 0.00 0.00
9:53 pm 21:53 Clear 40 4.4 11 -11.7 30 30 ESE 3 6 30.40 1029 10 16 0.00 0.00
10:53 pm 22:53 Clear 33 0.6 9 -12.8 36 36 NNE 6 9 30.42 1030 10 16 0.00 0.00
11:53 pm 23:53 Clear 34 1.1 10 -12.2 37 37 Calm 30.40 1030 10 16 0.00 0.00

Powered by AerisWeather